Printer-friendly version

IAU Minor Planet Center

Minor Planet Center

MPEC 2000-Y25: 2000 GU127

The following Minor Planet Electronic Circular may be linked-to from your own Web pages, but must not otherwise be redistributed electronically.


Read MPEC 2000-Y24 Read MPEC 2000-Y26


M.P.E.C. 2000-Y25                                Issued 2000 Dec. 21, 00:51 UT

     The Minor Planet Electronic Circulars contain information on unusual
         minor planets and routine data on comets.  They are published
   on behalf of Commission 20 of the International Astronomical Union by the
          Minor Planet Center, Smithsonian Astrophysical Observatory,
                          Cambridge, MA 02138, U.S.A.

             Prepared using the Tamkin Foundation Computer Network

                              MPC@CFA.HARVARD.EDU
          URL http://cfa-www.harvard.edu/iau/mpc.html  ISSN 1523-6714

                                  2000 GU127

                           Revision to MPEC 2000-G46

Observations:
     K00GC7U  C2000 12 05.39448 06 51 38.10 +08 57 17.4                      693
     K00GC7U  C2000 12 05.39850 06 51 37.72 +08 57 17.6                      693
     K00GC7U  C2000 12 05.40083 06 51 37.49 +08 57 17.5                      693
     K00GC7U 7C2000 12 20.33848 06 25 56.84 +09 18 04.4                      696
     K00GC7U 7C2000 12 20.34268 06 25 56.39 +09 18 05.3                      696

Observer details:
693 Catalina Station, Tucson.  Observer C. W. Hergenrother.  1.5-m reflector
    + CCD.
696 Whipple Observatory, Mt. Hopkins.  Observer T. B. Spahr.  1.2-m reflector
    + CCD.

First and last observations above in comparison with prediction:
Residuals in seconds of arc, reference and Delta-T
001205 693  3.8-  0.2-    001220 696  3.1-  0.4-    MPO  2769   -0.00041 day

Orbital elements:
2000 GU127
Epoch 2001 Apr. 1.0 TT = JDT 2452000.5                  Williams
M  91.19929              (2000.0)            P               Q
n   0.32153598     Peri.  137.95066     +0.65318821     +0.75697323
a   2.1101646      Node   172.76369     -0.72773189     +0.63428141
e   0.7234651      Incl.    8.37620     -0.20916849     +0.15709432
P   3.07           H   18.7           G   0.15           U   3
Residuals in seconds of arc
000407 699  0.6+  0.4+    000414 704  0.0   0.2+    000424 658  1.1-  0.6+
000407 699  0.1+  0.1+    000414 704  0.5+  0.6+    000424 658  0.5-  0.4+
000407 699  0.7+  0.4+    000414 704  0.5+  0.3+    000424 670  0.3+  0.4-
000407 699  0.3+  0.5+    000414 540  0.5+  0.4+    000424 402  0.0   0.5-
000408 704  0.2-  0.1-    000414 540  0.6+  0.0     000424 402  0.6+  0.5-
000408 704  0.2-  0.1+    000414 540  1.0+  1.1-    000424 402  0.1+  0.2-
000408 704  1.9+  0.2+    000414 540  0.4+  0.1+    000424 903  1.4-  0.5+
000409 046  0.3+  0.0     000414 118  0.2-  0.1-    000424 903  1.3+  0.9-
000409 046  0.2+  0.4+    000414 118  0.2+  0.2+    000424 903  0.1-  0.2-
000409 046  0.7-  0.8-    000414 118  0.2+  0.3+    000425 670  0.2-  0.9-
000409 557  0.0   0.0     000415 739  0.0   0.4-    000425 670  0.2-  1.1-
000409 557  0.1+  0.0     000415 739  0.6-  0.5+    000425 670  0.2+  0.3-
000409 557  0.2-  0.3-    000416 860  0.6+  0.7-    000425 151  0.7-  0.7-
000409 557  0.2-  0.1-    000416 860  0.9-  0.6-    000425 151  1.1-  0.5-
000409 699  0.5+  0.2-    000416 860  0.0   0.8-    000425 151  1.5-  0.4+
000409 699  0.1+  0.1-    000420 151  0.5-  0.4+    000425 151  0.9-  0.4+
000409 699  0.1+  0.0     000420 151  0.2-  0.3-    000425 151  1.1-  0.4-
000409 699  0.4+  0.1-    000420 540  0.4-  0.2+    000425 151  0.2-  0.2-
000409 739  0.1-  0.3+    000420 151  0.1+  1.0-    000425 610  1.4-  0.3+
000409 739  0.5+  0.6-    000420 540  0.1-  0.2+    000425 610  1.4-  0.2+
000409 739  0.9-  0.3+    000420 151  1.0+  0.9-    000425 610  1.4-  0.4+
000409 568  0.0   0.0     000420 540  0.2-  0.2+    000425 610  1.4-  0.4+
000409 568  0.1-  0.0     000420 540  0.0   0.0     000426 113 (3.0-  3.7-)
000409 046  0.0   0.0     000420 151  0.2-  0.0     000426 113 (5.1-  4.5-)
000409 046  0.5-  0.3+    000420 540  0.1-  0.4+    000426 113 (2.4-  3.3-)
000409 046  0.3-  0.1-    000420 151  0.4-  0.6-    000426 113 (4.8-  5.3-)
000409 046  0.4-  0.2-    000420 610  0.2-  0.2+    000426 113 (5.9-  4.1-)
000410 621  0.1-  0.2-    000420 610  0.1-  0.2+    000426 113 (5.8-  4.2-)
000410 621  0.0   0.1-    000420 610  0.1+  0.2+    000426 113 (5.9-  3.9-)
000410 621  0.1+  0.0     000420 610  0.1+  0.2+    000426 113 (5.8-  4.4-)
000410 621  0.1-  0.1-    000420 118  0.2+  0.2+    000426 113 (6.9-  3.7-)
000410 621  0.0   0.0     000420 118  0.2+  0.1+    000426 670  0.3-  0.4-
000411 012  0.4-  0.2-    000421 151  0.1+  0.5-    000426 670  0.4-  0.5-
000411 012  0.5-  0.4-    000421 151  0.6-  0.1-    000426 611  0.2+  0.0
000411 012  0.5-  0.1-    000421 151  0.2-  0.6-    000426 611  0.3-  0.6-
000411 012  0.3-  0.0     000421 151  0.4+  0.1-    000426 611  0.1+  0.4-
000411 012  0.4-  0.6-    000421 151  1.0-  1.2+    000426 611  0.5+  0.3+
000411 860  0.4+  0.1-    000421 046  0.3+  0.2+    000426 118  0.4+  0.4+
000411 860 (2.3-  0.8-)   000421 046  0.4+  0.3+    000426 118  0.3+  0.4+
000411 678  1.2+  0.1-    000421 046  0.4+  0.4+    000429 670  0.8-  1.2+
000411 678  1.3+  1.0-    000421 046  0.3+  0.4+    000429 670  0.3-  1.3+
000411 678  0.7+  0.1+    000421 046  0.6+  0.5+    000429 670  0.3-  0.2+
000411 678  1.7+  0.1+    000421 046  0.0   0.0     000429 413  0.2-  0.0
000411 678  1.2+  0.4-    000422 118  0.1-  0.7+    000429 413  0.4-  0.0
000411 678  0.6+  0.6-    000422 118  0.2-  0.4+    000429 349  0.5+  0.0
000411 402  0.2-  0.6-    000422 118  0.3-  0.7+    000429 349  1.2+  0.2-
000411 402  0.4-  0.4-    000422 739  0.1-  0.3-    000430 610  0.7+  0.1-
000411 402  0.2+  0.4-    000422 739  0.0   0.4-    000430 610  0.9+  0.1-
000411 402  0.4+  0.0     000422 739  0.2-  0.1-    000430 610  0.9+  0.1-
000411 345 (0.7-  2.7+)   000422 557  0.4+  0.1+    000430 610  1.2+  0.1-
000411 345 (1.2-  2.8+)   000422 557  0.1-  0.4+    000501 670  1.1-  0.4+
000411 345  0.9-  1.9+    000422 557  0.1-  0.3+    000501 670  0.8-  0.3+
000411 345 (0.8-  3.2+)   000422 557  0.0   0.1+    000501 670  0.8-  0.1-
000411 345 (0.3-  3.3+)   000422 610  0.0   0.7+    000501 670  0.7+  0.8+
000412 854  0.4-  0.3-    000422 610  0.1-  0.4+    000504 046  0.2-  0.2+
000412 854  0.3-  0.9-    000422 610  0.2-  0.2+    000504 046  0.1+  0.0
000412 854  0.3-  0.9-    000422 610  0.4-  0.2-    000504 046  0.3+  0.2+
000412 903  0.1+  1.3-    000423 118  0.4+  0.0     000504 046  0.2-  0.3-
000412 903 (2.1-  0.9+)   000423 557  0.1-  0.3-    000504 046  0.6+  0.1-
000412 903  0.9-  0.3-    000423 118  0.3+  0.2+    000505 726 (2.3-  2.3+)
000412 360  1.0-  0.6+    000423 557  0.2-  0.3-    000505 726  0.7-  0.4+
000412 360  0.9-  0.4+    000423 349  0.2+  0.2+    000505 726  1.2+  1.1-
000412 360  1.1-  0.4+    000423 349  0.6+  0.1-    000505 726  1.5+  0.9-
000413 557  0.0   0.3+    000423 349  0.4-  0.2+    000505 071 (0.5-  2.5+)
000413 557  0.0   0.2+    000423 349  0.3-  0.1+    000505 071  1.1-  0.8+
000413 557  0.1-  0.1+    000423 355  0.2-  0.1-    000505 071  1.8+  1.8+
000413 649  0.3-  0.4+    000423 355  0.4+  0.5-    000509 540  1.2+  0.4-
000413 649  0.2+  0.0     000423 355  0.4+  0.1+    000509 540  0.3-  0.3-
000413 649  0.3-  1.0+    000423 118  1.1+  0.2+    000509 540  0.4-  0.3-
000413 649  0.2-  0.6+    000423 118  0.7+  0.2-    000509 540  0.3-  0.3-
000413 649  1.7+  1.5+    000423 118  1.1+  0.0     001205 693  0.4-  0.3+
000413 118  0.4+  0.1+    000424 739  0.4+  0.1+    001205 693  0.1-  0.5+
000413 118  0.2+  0.6-    000424 739  0.1-  0.0     001205 693  0.0   0.3+
000413 118  0.4+  0.5-    000424 739  0.0   0.0     001220 696  0.1+  0.1-
000414 704  0.3+  0.1+    000424 739  0.1+  0.8-    001220 696  0.0   0.2+
000414 704  0.1+  0.0     000424 658  0.1-  0.6+

Ephemeris:
2000 GU127               a,e,i = 2.11, 0.72, 8                   q = 0.5835
Date    TT    R. A. (2000) Decl.     Delta      r     Elong.  Phase     V
2000 12 12    06 40.47   +09 02.7    1.362    2.296   155.7    10.2    21.8
2000 12 22    06 23.08   +09 22.2    1.408    2.372   165.0     6.1    21.8
2001 01 01    06 06.71   +09 53.3    1.486    2.446   163.8     6.4    22.0
2001 01 11    05 52.89   +10 32.5    1.595    2.516   154.1     9.8    22.4
2001 01 21    05 42.43   +11 16.6    1.731    2.584   142.8    13.3    22.7
2001 01 31    05 35.61   +12 02.8    1.889    2.649   131.7    16.1    23.1

Gareth V. Williams           (C) Copyright 2000 MPC           M.P.E.C. 2000-Y25

Read MPEC 2000-Y24 Read MPEC 2000-Y26


Our Web policy. Index to the CBAT/MPC/ICQ pages.


Valid HTML 4.01!